Overview Statistics Trail Chart Weather Telemetry Raw packets
 

This is the latest recevied weather packets stored in our database for station/object N0KWA. If no packets are shown the sender has not sent any weather packets the latest 10 day(s).

<< 3 4 5 6 7 8 9 >>
Time Temp. Humidity Pressure Rain* Wind** Luminosity Snow
1788541094 24.44° C 99% 1017.9 hPa 0 mm - 19 W/m² -
1788540788 24.44° C 99% 1018 hPa 0 mm - 19 W/m² -
1788540483 24.44° C 99% 1018.1 hPa 0 mm - 17 W/m² -
1788540178 24.44° C 99% 1018.3 hPa 1.78 mm - 14 W/m² -
1788539874 24.44° C 99% 1018 hPa 3.05 mm - 13 W/m² -
1788539569 24.44° C 99% 1017.9 hPa 3.05 mm - 11 W/m² -
1788539269 24.44° C 99% 1017.9 hPa 4.83 mm - 9 W/m² -
1788538963 24.44° C 99% 1017.8 hPa 6.1 mm - 7 W/m² -
1788538659 24.44° C 99% 1018 hPa 8.89 mm - 6 W/m² -
1788538359 24.44° C 99% 1017.9 hPa 8.89 mm - 6 W/m² -
1788538054 24.44° C 99% 1018.3 hPa 6.1 mm - 6 W/m² -
1788537750 24.44° C 99% 1018.3 hPa 4.83 mm - 6 W/m² -
1788537449 24.44° C 99% 1018.4 hPa 4.83 mm - 6 W/m² -
1788537148 24.44° C 99% 1018.3 hPa 6.1 mm - 7 W/m² -
1788536847 23.89° C 99% 1018.3 hPa 6.1 mm - 8 W/m² -
1788536542 23.89° C 99% 1018.3 hPa 6.1 mm - 4 W/m² -
1788536238 23.89° C 99% 1018.3 hPa 11.94 mm - 3 W/m² -
1788535934 23.89° C 99% 1018.2 hPa 19.81 mm - 4 W/m² -
1788535630 23.89° C 99% 1018.3 hPa 14.99 mm - 3 W/m² -
1788535325 23.89° C 99% 1018.3 hPa 3.05 mm - 1 W/m² -
1788535025 23.89° C 99% 1018.4 hPa 1.78 mm - 2 W/m² -
1788534724 23.89° C 99% 1018.2 hPa 1.27 mm - 3 W/m² -
1788534419 23.89° C 99% 1018.4 hPa 3.05 mm - 4 W/m² -
1788534115 23.89° C 99% 1018.4 hPa 1.78 mm - 5 W/m² -
1788533813 23.89° C 99% 1018.4 hPa 0 mm - 3 W/m² -

* Rain latest hour (hover to see other rain measurements)
** Current wind speed in m/s (hover to see current wind gust speed)